This demonstration page uses our WeatherBlox Daily Observations layout. Learn more.

39.08367, -84.50855

Hourly Observations for July 14, 2019

Temp ( °F °C ) Dew Point ( °F °C ) Humidity (%) Winds ( mph kmh ) Pressure ( in mb ) Visibility ( mi km ) Precip ( " mm )
12:53 am 00:53 Clear 69 20.6 65 18.3 87 87 Calm 30.06 1018 10 16.09344 0 0
1:53 am 01:53 Clear 68 20 66 18.9 93 93 Calm 30.06 1018 10 16.09344 0 0
2:53 am 02:53 Clear 66 18.9 65 18.3 96 96 Calm 30.06 1018 10 16.09344 0 0
3:53 am 03:53 Clear 64 17.8 63 17.2 96 96 Calm 30.06 1018 7 11.265408 0 0
4:53 am 04:53 Clear 63 17.2 63 17.2 100 100 SSW 5 7 30.06 1018 8 12.874752 0 0
5:53 am 05:53 Clear 64 17.8 64 17.8 100 100 S 3 6 30.06 1018 10 16.09344 0 0
6:53 am 06:53 Sunny with Mist and Fog 64 17.8 63 17.2 96 96 Calm 30.09 1019 6 9.656064 0 0
7:53 am 07:53 Sunny 69 20.6 66 18.9 90 90 Calm 30.12 1020 10 16.09344 0 0
8:53 am 08:53 Sunny 73 22.8 68 20 84 84 S 3 6 30.12 1020 10 16.09344 0 0
9:53 am 09:53 Sunny 79 26.1 69 20.6 72 72 S 8 13 30.12 1020 10 16.09344 0 0
10:53 am 10:53 Sunny 83 28.3 69 20.6 63 63 S 5 7 30.09 1019 10 16.09344 0 0
11:53 am 11:53 Sunny 85 29.4 69 20.6 59 59 S 3 6 30.09 1019 10 16.09344 0 0
12:53 pm 12:53 Sunny 88 31.1 65 18.3 46 46 SW 6 9 30.12 1020 10 16.09344 0 0
1:53 pm 13:53 Sunny 89 31.7 64 17.8 43 43 S 6 9 30.09 1019 10 16.09344 0 0
2:53 pm 14:53 Sunny 92 33.3 59 15 33 33 VRB 7 11 30.09 1019 10 16.09344 0 0
3:53 pm 15:53 Sunny 91 32.8 61 16.1 37 37 W 10 17 30.06 1018 10 16.09344 0 0
4:53 pm 16:53 Mostly Sunny 91 32.8 64 17.8 41 41 WSW 8 13 30.06 1018 10 16.09344 0 0
5:53 pm 17:53 Mostly Sunny 90 32.2 66 18.9 45 45 SW 5 7 30.06 1018 10 16.09344 0 0
6:53 pm 18:53 Sunny 90 32.2 64 17.8 42 42 W 10 17 30.03 1017 10 16.09344 0 0
7:53 pm 19:53 Sunny 86 30 65 18.3 49 49 W 8 13 30.06 1018 10 16.09344 0 0
8:53 pm 20:53 Sunny 85 29.4 64 17.8 50 50 NW 5 7 30.09 1019 10 16.09344 0 0
9:53 pm 21:53 Clear 76 24.4 69 20.6 79 79 Calm 30.09 1019 10 16.09344 0 0
10:53 pm 22:53 Clear 75 23.9 68 20 79 79 ESE 3 6 30.09 1019 10 16.09344 0 0
11:53 pm 23:53 Clear 73 22.8 68 20 84 84 S 3 6 30.09 1019 10 16.09344 0 0

Powered by AerisWeather